[[{"header":{"parameterUnit":"m.s-1","parameterCategory":1,"la1":30.2991,"la2":30.254,"lo1":-89.0895,"lo2":-89.0444,"dy":0.0017,"dx":0.0017,"nx":28,"ny":28,"refTime":"2025-07-18T21:00:00:Z","depth":0,"parameterNumber":2,"parameterNumberName":"U-component_of_WINDS"},"data":[0,0,0,0,0,0,0,0,0,0,0,0,0,0,0,0,0,0,0,0,0,0,0,0,0,0,0,0,0,0,0,0,0,0,0,0,0,0,0,0,0,0,0,0,0,0,0,0,0,0,0,0,0,0,0,0,0,0,0.6459,0.646,0,0.6514,0.6515,0.6515,0.6534,0.6534,0.6534,0.6533,0.6593,0.6594,0.6596,0,0,0,0,0,0,0,0,0,0,0,0,0,0.6371,0.6373,0.6459,0.646,0.646,0.6514,0.6515,0.6516,0.6534,0.6534,0.6533,0.6533,0.6592,0.6594,0.6596,0,0,0,0,0,0,0,0,0,0,0,0,0,0.6416,0.6373,0.6459,0.6476,0.6478,0.6514,0.6515,0.6516,0.6534,0.6534,0.6533,0.6533,0.6591,0.6594,0.6597,0.662,0,0,0.6605,0.6606,0,0,0,0,0,0,0,0,0.6414,0.6419,0.6473,0.6475,0.6477,0.6517,0.6506,0.6551,0.6534,0.6513,0.6533,0.6533,0.6568,0.6572,0.6584,0.6623,0.6626,0.6605,0.6607,0.6608,0.6609,0,0,0,0,0,0,0,0.6411,0.6417,0.6481,0.6474,0.6476,0.6481,0.6487,0.6514,0.6542,0.6515,0.6516,0.6522,0.6569,0.6581,0.6585,0.6626,0.6605,0.6607,0.6609,0.661,0.6687,0.6688,0,0,0,0,0,0,0.6404,0.6414,0.6479,0.6483,0.6444,0.6483,0.649,0.6505,0.6541,0.6547,0.6523,0.6523,0.6577,0.6582,0.6587,0.6617,0.6608,0.661,0.6612,0.6687,0.6687,0.6688,0,0,0,0,0,0,0.6402,0.641,0.6477,0.6449,0.6458,0.6485,0.6501,0.6506,0.6518,0.6547,0.6553,0.653,0.6576,0.6584,0.6612,0.6619,0.6612,0.6614,0.6686,0.6687,0.6688,0.6676,0,0,0,0,0,0,0.64,0.6409,0.6418,0.6449,0.6459,0.65,0.6502,0.6507,0.6522,0.6523,0.6555,0.656,0.6577,0.6607,0.6614,0.6623,0.6616,0.6686,0.6687,0.6687,0.6676,0.6677,0.6677,0,0,0,0,0,0.6396,0.6413,0.6418,0.6426,0.6471,0.65,0.6506,0.6524,0.6523,0.6532,0.6551,0.6559,0.6617,0.661,0.6618,0.6627,0.6685,0.6686,0.6687,0.6676,0.6677,0.6677,0,0,0,0,0,0,0.6384,0.6418,0.6424,0.6451,0.6472,0.6503,0.6516,0.6524,0.6547,0.6547,0.6568,0.6576,0.6602,0.6618,0.6609,0.6652,0.6652,0.6654,0.6641,0.6641,0.6642,0.6637,0.6618,0,0,0,0,0,0.6384,0.6404,0.6433,0.6455,0.6465,0.6488,0.6502,0.6513,0.6537,0.6546,0.6567,0.659,0.6613,0.6628,0.6651,0.6679,0.6686,0.6689,0.6689,0.6689,0.6691,0.6706,0.6708,0.6691,0.6691,0.6691,0,0,0.6385,0.6406,0.6418,0.6452,0.647,0.6491,0.6496,0.6518,0.6534,0.655,0.6577,0.6593,0.662,0.6647,0.6661,0.6662,0.6698,0.6691,0.6691,0.6693,0.6707,0.6709,0.671,0.6692,0.6692,0.6691,0,0,0.6397,0.6415,0.6435,0.6452,0.6479,0.6494,0.6498,0.6528,0.6539,0.6566,0.6578,0.6598,0.6638,0.6656,0.6671,0.6689,0.6697,0.6696,0.6698,0.6712,0.6713,0.6714,0.672,0.6722,0.6698,0.6698,0.6698,0,0.6395,0.6426,0.6444,0.6465,0.648,0.6494,0.6514,0.653,0.6563,0.6573,0.6573,0.6623,0.6642,0.6674,0.6678,0.6689,0.6695,0.6692,0.6711,0.6713,0.6714,0.672,0.6723,0.6697,0.6697,0.6697,0.6697,0,0.6423,0.6444,0.6456,0.6487,0.6503,0.6523,0.6544,0.6558,0.6568,0.6584,0.6611,0.6635,0.6662,0.6671,0.6681,0.6704,0.6703,0.6707,0.6707,0.6715,0.6721,0.6724,0.6697,0.6697,0.6697,0.6697,0,0,0.6429,0.6468,0.6472,0.6485,0.6515,0.6532,0.6553,0.6579,0.6591,0.6613,0.6631,0.6664,0.6667,0.6684,0.6697,0.6709,0.6721,0.6711,0.6712,0.6712,0.6746,0.6743,0.6745,0.6727,0.6727,0.6728,0.6744,0,0.6445,0.6482,0.6497,0.6527,0.6547,0.6561,0.6579,0.6599,0.6614,0.6633,0.665,0.6672,0.6675,0.6685,0.6698,0.6717,0.6728,0.6716,0.6744,0.6745,0.6736,0.6749,0.6745,0.676,0.6747,0.6747,0.6747,0,0.6468,0.6489,0.6521,0.6547,0.6556,0.6572,0.6597,0.6615,0.6638,0.6648,0.6666,0.6677,0.67,0.6699,0.673,0.6721,0.6734,0.6744,0.6745,0.6749,0.6746,0.6752,0.6765,0.6767,0.6751,0.6751,0.6751,0,0.6469,0.6505,0.6529,0.654,0.6572,0.6582,0.6596,0.6619,0.6633,0.6655,0.6665,0.6689,0.6703,0.6721,0.6739,0.6737,0.6769,0.6769,0.6778,0.6777,0.6784,0.6784,0.6799,0.6792,0.6792,0.6792,0.6792,0,0.6485,0.6504,0.6529,0.6544,0.6565,0.6583,0.6604,0.6618,0.6639,0.6656,0.667,0.6686,0.6709,0.6728,0.6743,0.6766,0.6772,0.6781,0.6785,0.678,0.6779,0.6788,0.6788,0.6793,0.6793,0.6793,0.6793,0,0.6489,0.6507,0.6534,0.6561,0.6568,0.6583,0.6606,0.6621,0.6636,0.6658,0.6664,0.6688,0.6712,0.6731,0.6762,0.6772,0.6796,0.6801,0.6788,0.679,0.6797,0.6796,0.682,0.6823,0.6814,0.6814,0.6814,0,0.6498,0.6513,0.6541,0.6554,0.6567,0.6587,0.6601,0.6619,0.6634,0.6661,0.6672,0.6696,0.6716,0.6753,0.6774,0.6797,0.6802,0.6809,0.6806,0.68,0.6802,0.6801,0.6802,0.6809,0.6809,0.6809,0.6809,0,0.6512,0.652,0.6539,0.6562,0.6578,0.6597,0.6616,0.6626,0.6648,0.6663,0.6687,0.6702,0.6733,0.6757,0.6783,0.6798,0.6807,0.681,0.6813,0.6808,0.68,0.6804,0.6788,0.6809,0.6809,0.6809,0.6809,0.6809,0.6519,0.6532,0.6554,0.6575,0.6591,0.6608,0.6623,0.6639,0.6659,0.6685,0.6695,0.6719,0.6741,0.6776,0.6791,0.6811,0.6812,0.6817,0.6818,0.6819,0.6818,0.6797,0.6815,0.6815,0.6815,0.6815,0.6815,0,0.6532,0.6547,0.6566,0.6592,0.6609,0.6615,0.6636,0.665,0.6671,0.6691,0.671,0.6737,0.6759,0.6781,0.6805,0.6816,0.6821,0.6822,0.6821,0.6824,0.6815,0.681,0.6818,0.6818,0.6817,0.6817,0.6817,0.6817,0.6542,0.6564,0.6574,0.6605,0.6619,0.6642,0.6654,0.667,0.6686,0.6714,0.6733,0.6747,0.6767,0.6793,0.6814,0.682,0.6828,0.6828,0.6834,0.6826,0.6825,0.6825,0.682,0.6829,0.6829,0.6842,0.6842,0.6842]},{"header":{"parameterUnit":"m.s-1","parameterCategory":1,"la1":30.2991,"la2":30.254,"lo1":-89.0895,"lo2":-89.0444,"dy":0.0017,"dx":0.0017,"nx":28,"ny":28,"refTime":"2025-07-18T21:00:00:Z","depth":0,"parameterNumber":3,"parameterNumberName":"V-component_of_WINDS"},"data":[0,0,0,0,0,0,0,0,0,0,0,0,0,0,0,0,0,0,0,0,0,0,0,0,0,0,0,0,0,0,0,0,0,0,0,0,0,0,0,0,0,0,0,0,0,0,0,0,0,0,0,0,0,0,0,0,0,0,4.9668,4.9668,0,4.9633,4.9633,4.9632,4.9563,4.9562,4.956,4.9559,4.9523,4.9524,4.9524,0,0,0,0,0,0,0,0,0,0,0,0,0,4.9676,4.9676,4.9669,4.9668,4.9668,4.9633,4.9633,4.9632,4.9563,4.9562,4.956,4.9559,4.9523,4.9524,4.9524,0,0,0,0,0,0,0,0,0,0,0,0,0,4.966,4.9677,4.9669,4.9629,4.9625,4.9633,4.9633,4.9632,4.9564,4.9562,4.956,4.9558,4.9523,4.9524,4.9524,4.9568,0,0,4.9525,4.9526,0,0,0,0,0,0,0,0,4.9661,4.966,4.9635,4.9632,4.9628,4.96,4.9622,4.9611,4.9564,4.9587,4.9559,4.9557,4.9551,4.9549,4.9547,4.9566,4.9564,4.9526,4.9526,4.9526,4.9526,0,0,0,0,0,0,0,4.9662,4.9661,4.9654,4.9635,4.963,4.9613,4.9609,4.962,4.9581,4.9585,4.958,4.9577,4.9548,4.9546,4.9545,4.9564,4.9525,4.9526,4.9526,4.9526,4.9615,4.9617,0,0,0,0,0,0,4.9669,4.9662,4.9656,4.9653,4.964,4.9615,4.961,4.9611,4.958,4.9574,4.9578,4.9574,4.9547,4.9545,4.9544,4.9591,4.9526,4.9526,4.9527,4.9613,4.9616,4.9618,0,0,0,0,0,0,4.967,4.9669,4.9657,4.9657,4.9654,4.9617,4.9619,4.9612,4.961,4.9575,4.9568,4.9584,4.9545,4.9543,4.9562,4.9589,4.9527,4.9527,4.9611,4.9614,4.9617,4.9687,0,0,0,0,0,0,4.967,4.967,4.9686,4.9657,4.9654,4.9676,4.9621,4.9612,4.9611,4.9604,4.9578,4.9572,4.9543,4.9561,4.9562,4.9588,4.9527,4.9608,4.9612,4.9616,4.9682,4.9693,4.9701,0,0,0,0,0,4.9671,4.9708,4.9687,4.9687,4.9674,4.9678,4.9676,4.9641,4.9613,4.9629,4.9607,4.9573,4.9586,4.9564,4.9564,4.9591,4.9606,4.9611,4.9616,4.9678,4.9691,4.9701,0,0,0,0,0,0,4.9741,4.9703,4.968,4.9709,4.9697,4.9666,4.9685,4.9656,4.9651,4.9645,4.9603,4.9598,4.9622,4.9608,4.9584,4.9631,4.9591,4.9596,4.9638,4.965,4.9659,4.9661,4.9528,0,0,0,0,0,4.976,4.9767,4.9733,4.9762,4.9757,4.9722,4.9723,4.9697,4.9683,4.9678,4.9657,4.9645,4.9645,4.9647,4.9646,4.9681,4.9673,4.9699,4.9709,4.9716,4.9721,4.9736,4.9747,4.9633,4.9633,4.9633,0,0,4.9799,4.9779,4.9786,4.9776,4.9763,4.977,4.9719,4.9729,4.9733,4.9679,4.9695,4.968,4.9663,4.9689,4.97,4.9679,4.9751,4.9722,4.9729,4.9729,4.9742,4.9753,4.9762,4.9637,4.9636,4.9636,0,0,4.9873,4.986,4.9881,4.987,4.9852,4.9828,4.9834,4.9807,4.9794,4.981,4.9768,4.9774,4.9777,4.9766,4.9761,4.9831,4.9799,4.9832,4.988,4.9896,4.9905,4.9912,4.9935,4.9945,4.9837,4.9837,4.9837,0,4.9924,4.9933,4.9896,4.9909,4.9905,4.9856,4.9877,4.9868,4.9851,4.9849,4.9826,4.9828,4.9813,4.9835,4.9852,4.9851,4.9854,4.9834,4.9906,4.9914,4.992,4.9942,4.9951,4.9841,4.984,4.984,4.984,0,4.9996,5.0003,5.0023,5.0006,5.0005,5.0022,4.9987,4.999,4.9965,4.9944,4.9959,4.994,4.9934,4.9937,4.9913,4.9956,4.9943,4.9914,4.9873,4.9936,4.9955,4.9963,4.9847,4.9845,4.9844,4.9843,0,0,5.0113,5.0076,5.0083,5.0075,5.0051,5.0055,5.007,5.0063,5.0066,5.0056,5.0066,5.007,5.0042,5.0037,5.0011,5.0025,5.0079,4.9993,4.9992,5.0008,5.0123,5.0143,5.0154,5.0058,5.006,5.0061,5.0123,0,5.018,5.0202,5.0169,5.0199,5.0204,5.0158,5.017,5.0157,5.0137,5.0139,5.0118,5.012,5.0085,5.008,5.0092,5.007,5.0101,5.0065,5.0066,5.0067,5.007,5.0164,5.0186,5.0246,5.0131,5.0132,5.0133,0,5.0262,5.0255,5.0285,5.0258,5.0259,5.0271,5.0261,5.0264,5.0248,5.0233,5.0226,5.0195,5.0207,5.0168,5.0183,5.0159,5.0158,5.0147,5.0148,5.0145,5.0103,5.0162,5.0265,5.0273,5.0145,5.0144,5.0143,0,5.0342,5.034,5.0357,5.0352,5.0322,5.0331,5.0319,5.03,5.0298,5.029,5.0288,5.0282,5.0278,5.0274,5.0242,5.0217,5.026,5.0219,5.0247,5.0248,5.0256,5.0256,5.0358,5.0259,5.0259,5.0259,5.0258,0,5.042,5.044,5.0393,5.0403,5.0424,5.0385,5.0407,5.039,5.0374,5.038,5.034,5.0346,5.0304,5.0306,5.0281,5.0296,5.0295,5.0283,5.0275,5.0285,5.0286,5.0282,5.0277,5.0261,5.026,5.026,5.026,0,5.0512,5.0482,5.0497,5.0467,5.046,5.0476,5.045,5.0458,5.0436,5.0444,5.0444,5.041,5.041,5.0378,5.0371,5.0354,5.0379,5.0365,5.0384,5.0379,5.0408,5.0405,5.0509,5.0521,5.0416,5.0417,5.0418,0,5.0563,5.0576,5.0548,5.0549,5.0539,5.0541,5.0538,5.0502,5.05,5.0482,5.0492,5.0489,5.0484,5.0486,5.046,5.0454,5.0439,5.0476,5.0438,5.0447,5.0437,5.0436,5.0436,5.0484,5.0485,5.0486,5.0487,0,5.0655,5.064,5.0637,5.063,5.0628,5.062,5.061,5.0613,5.0573,5.0574,5.0573,5.0569,5.0562,5.0558,5.0548,5.0535,5.0504,5.0499,5.0505,5.0514,5.0524,5.0517,5.0404,5.0497,5.0496,5.0495,5.0494,5.0494,5.0727,5.0736,5.0717,5.0716,5.0705,5.0696,5.0702,5.068,5.0679,5.067,5.0649,5.0651,5.0633,5.0616,5.0606,5.0606,5.0588,5.0596,5.0598,5.0601,5.0605,5.0525,5.0605,5.0604,5.0604,5.0604,5.0603,0,5.0816,5.0801,5.0801,5.0787,5.0786,5.0758,5.0745,5.0745,5.0748,5.0734,5.073,5.0728,5.0725,5.0699,5.0692,5.0698,5.0683,5.0697,5.0695,5.0692,5.0623,5.0618,5.0708,5.0708,5.0708,5.0708,5.0708,5.0708,5.0862,5.0876,5.0858,5.0866,5.0851,5.0853,5.0848,5.0839,5.0828,5.0828,5.0824,5.0808,5.0789,5.078,5.0775,5.0767,5.0766,5.0784,5.0772,5.0707,5.0697,5.0688,5.0682,5.0785,5.0785,5.084,5.084,5.0841]}]]